Regional Weather Roundup
Issued by NWS Newport/Morehead, NC

Current Version | Previous Version | Text Only | Print | Product List | Glossary On
Versions: 1 2 3 4 5 6 7 8 9 10 11 12 13 14 15 16 17 18 19 20 21 22 23 24 25 26 27 28 29 30 31 32 33 34 35 36 37 38 39 40 41 42 43 44 45 46 47 48 49 50
000
ASUS42 KMHX 221525
RWRMHX
WEATHER ROUNDUP FOR EASTERN NORTH CAROLINA
NATIONAL WEATHER SERVICE NEWPORT/MOREHEAD CITY NC
1100 AM EDT TUE AUG 22 2017

NOTE: "FAIR" INDICATES FEW OR NO CLOUDS BELOW 12,000 FEET
WITH NO SIGNIFICANT WEATHER AND/OR OBSTRUCTIONS TO VISIBILITY

NCZ015>017-031-032-045>047-102-103-221600-
NORTH COAST

CITY           SKY/WX    TMP DP  RH WIND       PRES   REMARKS
EDENTON        SUNNY     85  76  74 CALM      30.11F
ELIZABETH CITY PTSUNNY   86  76  71 S9        30.10F
KITTY HAWK     SUNNY     84  73  69 CALM      30.10S
MANTEO         SUNNY     83  75  76 SW6       30.11F

$$

NCZ045>047-081-094-103-104-221600-
CENTRAL COAST

CITY           SKY/WX    TMP DP  RH WIND       PRES   REMARKS
FRISCO         SUNNY     86  77  74 S6        30.12S

$$

NCZ095-097-098-100-101-221600-
SOUTHERN COAST

CITY           SKY/WX    TMP DP  RH WIND       PRES   REMARKS
BEAUFORT       MOSUNNY   85  77  77 S9        30.12S
CEDAR ISLAND   NOT AVBL
JACKSONVILLE   LGT RAIN  82  77  84 N3        30.10F
PINEY ISLAND   LGT RAIN N/A N/A N/A E6        30.11F
WILMINGTON     CLOUDY    85  77  77 S8        30.11S


$$

NCZ011>013-027>030-043-044-078>080-089-090>093-098-221600-
COASTAL PLAIN

CITY           SKY/WX    TMP DP  RH WIND       PRES   REMARKS
AHOSKIE          N/A     82  74  78 S6        30.10F
CLINTON        SUNNY     84  76  78 CALM      30.12F
ELIZABETHTOWN  NOT AVBL
GOLDSBORO      PTSUNNY   84  80  88 SW6       30.11S
GREENVILLE     MOSUNNY   86  75  70 W6        30.12F
HAVELOCK       LGT RAIN  79  76  90 E3        30.13R VSB 3/4
KENANSVILLE    PTSUNNY   86  75  70 SW3       30.12S
KINSTON        PTSUNNY   84  75  74 SW5       30.12F
NEW BERN       PTSUNNY   87  75  67 CALM      30.12F
RICHLANDS      PTSUNNY   87  76  69 S7        30.11F
ROCKY MOUNT    MOSUNNY   83  76  79 SW5       30.11F
WASHINGTON     SUNNY     84  74  72 SW5       30.11F
WHITEVILLE     CLOUDY    85  74  69 W6        30.11S

$$

AMZ130-135-150-152-154-156-158-170-250-252-270-ANZ085-086-088-633-658-670-221600-
MARINE OBSERVATIONS

STATION/POSITION TIME  TEMP    WIND        PRES    WAVE   SWELL
                       AIR SEA DIR/SP/G            HT/PER HT/PER
                 (UTC) (F)     (DEG/KT/KT) (MB)    (FT/S) (FT/S)
CHESAPEAKE LIGHT NOT AVBL
64 E VA BEACH    1450   79 80  200/  8/  8 1020.0    2/11   2/11
DUCK             1500   81 76  230/  6/  8 1019.1
2 E DUCK         1500      81                N/A     2/12   2/12
OREGON INLET     1500   82 81  190/  6/  7 1019.6
13E OREGON INLT  1448      81                N/A     2/12   2/12
HATTERAS CG      1500   84 82  180/  5/  6 1019.9
DIAMOND BUOY     1450   82 87  200/  8/ 10 1019.8    3/ 9   3/ 9
CAPE LOOKOUT     1500   83     160/  6/  7 1019.6
BEAUFORT LAB     1500   83 81  170/  7/  9 1019.3
30 SE NEW RVR IN 1508   82 84  190/  6/ 10 1019.9
30 SE NEW RVR IN 1513      84                N/A     4/10   2/11
27 SE WRIGHTSVLE 1408   80 83   80/  6/ 10 1020.2
5 SE WRIGHTSVLE  1508   81 83  150/  8/ 10 1019.8
225 S CAPE HAT   1450   82 84  100/  6/  8 1020.6    5/10   5/10
41 SE CHARLESTON 1510   84 85  220/  4/  6 1019.6

$$




USA.gov is the U.S. government's official web portal to all federal, state and local government web resources and services.